Starlink 32413

operational
NORAD ID: 61590 Int'l Des: 2024-187 Owner: SPXS Country: US Constellation: starlink
LEOCIRCULAR

Über Starlink 32413

Beschreibung wird geladen...

Live-Position

3D-Globus wird geladen...

Nächste Überflüge

Höhenverlauf

Altitude vs Time

uPlot chart will show altitude changes over time

Zweizeiliger Elementsatz

1 61590U 24187S 25352.66355331 .00000739 00000-0 37076-4 0 9998
2 61590 53.1599 81.7056 0001179 85.7592 274.3543 15.30195937 66672
Epoch: 18. Dez. 2025 • Age: 11 hours

Aktueller Status

Höhe 476.6 km
Geschwindigkeit 7.63 km/s
Subsatellitenpunkt 31.16°N, 27.74°W
Startdatum 18. Okt. 2024
Alter 1.1 years
Typ internet

Technische Details

Klassifizierung Payload
Masse 730.00 kg
Trockenmasse 700.00 kg
Gesamtmasse 730.00 kg
Länge 0.30 m
Durchmesser 4.10 m
Spannweite 29.00 m
Form Box + pan
Hersteller SPXS
Bus-Typ Starlink V2M
Phasenstatus In Orbit
Besitzer/Staat SPXS/US

Große Konstellationen

Loading constellations...